owner,sensor,date,latitude,longitude,vertical_datum,wind_speed,wind_to_direction,wind_speed_of_gust,qcFlag 
TCOON,ioos:station:TCOON:057:1,2008-12-01T00:00:00Z,28.4460,-96.3961,0.0,4.1,263.0,4.7,'11111222,11111222,11111222' 
TCOON,ioos:station:TCOON:057:1,2008-12-01T01:00:00Z,28.4460,-96.3961,0.0,4.5,271.0,5.8,'11111222,11111222,11111222' 
TCOON,ioos:station:TCOON:057:1,2008-12-01T03:00:00Z,28.4460,-96.3961,0.0,3.6,310.0,4.2,'11111222,11111222,11111222' 
TCOON,ioos:station:TCOON:057:1,2008-12-01T04:00:00Z,28.4460,-96.3961,0.0,2.9,243.0,3.4,'11111222,11111222,11111222' 
TCOON,ioos:station:TCOON:057:1,2008-12-01T05:00:00Z,28.4460,-96.3961,0.0,7.1,336.0,8.4,'11111222,11111222,11111222' 
TCOON,ioos:station:TCOON:057:1,2008-12-01T06:00:00Z,28.4460,-96.3961,0.0,10.1,334.0,11.8,'11111222,11111222,11111222' 
TCOON,ioos:station:TCOON:057:1,2008-12-01T07:00:00Z,28.4460,-96.3961,0.0,3.7,281.0,4.7,'11111222,11111222,11111222' 
TCOON,ioos:station:TCOON:057:1,2008-12-01T08:00:00Z,28.4460,-96.3961,0.0,2.5,270.0,2.9,'11111222,11111222,11111222' 
TCOON,ioos:station:TCOON:057:1,2008-12-01T09:00:00Z,28.4460,-96.3961,0.0,2.9,264.0,4.0,'11111222,11111222,11111222' 
TCOON,ioos:station:TCOON:057:1,2008-12-01T10:00:00Z,28.4460,-96.3961,0.0,4.0,255.0,4.4,'11111222,11111222,11111222' 
TCOON,ioos:station:TCOON:057:1,2008-12-01T11:00:00Z,28.4460,-96.3961,0.0,4.5,266.0,5.5,'11111222,11111222,11111222' 
TCOON,ioos:station:TCOON:057:1,2008-12-01T12:00:00Z,28.4460,-96.3961,0.0,4.5,274.0,5.3,'11111222,11111222,11111222' 
TCOON,ioos:station:TCOON:057:1,2008-12-01T13:00:00Z,28.4460,-96.3961,0.0,4.4,282.0,5.4,'11111222,11111222,11111222' 
TCOON,ioos:station:TCOON:057:1,2008-12-01T14:00:00Z,28.4460,-96.3961,0.0,4.1,277.0,4.9,'11111222,11111222,11111222' 
TCOON,ioos:station:TCOON:057:1,2008-12-01T15:00:00Z,28.4460,-96.3961,0.0,3.2,338.0,3.5,'11111222,11111222,11111222' 
TCOON,ioos:station:TCOON:057:1,2008-12-01T16:00:00Z,28.4460,-96.3961,0.0,4.1,326.0,6.9,'11111222,11111222,11111222' 
TCOON,ioos:station:TCOON:057:1,2008-12-01T17:00:00Z,28.4460,-96.3961,0.0,5.2,348.0,6.4,'11111222,11111222,11111222' 
TCOON,ioos:station:TCOON:057:1,2008-12-01T18:00:00Z,28.4460,-96.3961,0.0,4.7,321.0,5.1,'11111222,11111222,11111222' 
TCOON,ioos:station:TCOON:057:1,2008-12-01T19:00:00Z,28.4460,-96.3961,0.0,3.7,326.0,4.4,'11111222,11111222,11111222' 
TCOON,ioos:station:TCOON:057:1,2008-12-01T20:00:00Z,28.4460,-96.3961,0.0,3.9,351.0,4.9,'11111222,11111222,11111222' 
TCOON,ioos:station:TCOON:057:1,2008-12-01T21:00:00Z,28.4460,-96.3961,0.0,1.6,341.0,2.5,'11111222,11111222,11111222' 
TCOON,ioos:station:TCOON:057:1,2008-12-01T22:00:00Z,28.4460,-96.3961,0.0,2.7,321.0,3.2,'11111222,11111222,11111222' 
TCOON,ioos:station:TCOON:057:1,2008-12-01T23:00:00Z,28.4460,-96.3961,0.0,9.0,322.0,10.7,'11111222,11111222,11111222' 
TCOON,ioos:station:TCOON:057:1,2008-12-02T00:00:00Z,28.4460,-96.3961,0.0,9.8,333.0,11.1,'11111222,11111222,11111222' 
TCOON,ioos:station:TCOON:057:1,2008-12-02T01:00:00Z,28.4460,-96.3961,0.0,9.6,340.0,11.6,'11111222,11111222,11111222' 
TCOON,ioos:station:TCOON:057:1,2008-12-02T02:00:00Z,28.4460,-96.3961,0.0,7.9,353.0,9.0,'11111222,11111222,11111222' 
TCOON,ioos:station:TCOON:057:1,2008-12-02T03:00:00Z,28.4460,-96.3961,0.0,9.3,5.0,10.9,'11111222,11111222,11111222' 
TCOON,ioos:station:TCOON:057:1,2008-12-02T04:00:00Z,28.4460,-96.3961,0.0,8.2,32.0,9.1,'11111222,11111222,11111222' 
TCOON,ioos:station:TCOON:057:1,2008-12-02T05:00:00Z,28.4460,-96.3961,0.0,6.4,58.0,7.5,'11111222,11111222,11111222' 
TCOON,ioos:station:TCOON:057:1,2008-12-02T06:00:00Z,28.4460,-96.3961,0.0,6.0,73.0,6.6,'11111222,11111222,11111222' 
TCOON,ioos:station:TCOON:057:1,2008-12-02T07:00:00Z,28.4460,-96.3961,0.0,4.9,75.0,5.3,'11111222,11111222,11111222' 
TCOON,ioos:station:TCOON:057:1,2008-12-02T08:00:00Z,28.4460,-96.3961,0.0,5.9,78.0,6.7,'11111222,11111222,11111222' 
TCOON,ioos:station:TCOON:057:1,2008-12-02T09:00:00Z,28.4460,-96.3961,0.0,5.5,97.0,6.3,'11111222,11111222,11111222' 
TCOON,ioos:station:TCOON:057:1,2008-12-02T10:00:00Z,28.4460,-96.3961,0.0,5.7,112.0,6.3,'11111222,11111222,11111222' 
TCOON,ioos:station:TCOON:057:1,2008-12-02T11:00:00Z,28.4460,-96.3961,0.0,6.4,111.0,7.2,'11111222,11111222,11111222' 
TCOON,ioos:station:TCOON:057:1,2008-12-02T12:00:00Z,28.4460,-96.3961,0.0,6.1,124.0,6.9,'11111222,11111222,11111222' 
TCOON,ioos:station:TCOON:057:1,2008-12-02T13:00:00Z,28.4460,-96.3961,0.0,6.1,132.0,7.0,'11111222,11111222,11111222' 
TCOON,ioos:station:TCOON:057:1,2008-12-02T14:00:00Z,28.4460,-96.3961,0.0,7.0,138.0,8.2,'11111222,11111222,11111222' 
TCOON,ioos:station:TCOON:057:1,2008-12-02T15:00:00Z,28.4460,-96.3961,0.0,6.3,153.0,7.4,'11111222,11111222,11111222' 
TCOON,ioos:station:TCOON:057:1,2008-12-02T16:00:00Z,28.4460,-96.3961,0.0,5.9,168.0,6.6,'11111222,11111222,11111222' 
TCOON,ioos:station:TCOON:057:1,2008-12-02T17:00:00Z,28.4460,-96.3961,0.0,6.8,172.0,7.4,'11111222,11111222,11111222' 
TCOON,ioos:station:TCOON:057:1,2008-12-02T18:00:00Z,28.4460,-96.3961,0.0,6.3,175.0,7.0,'11111222,11111222,11111222' 
TCOON,ioos:station:TCOON:057:1,2008-12-02T19:00:00Z,28.4460,-96.3961,0.0,7.8,171.0,8.9,'11111222,11111222,11111222' 
TCOON,ioos:station:TCOON:057:1,2008-12-02T20:00:00Z,28.4460,-96.3961,0.0,7.9,168.0,9.0,'11111222,11111222,11111222' 
TCOON,ioos:station:TCOON:057:1,2008-12-02T21:00:00Z,28.4460,-96.3961,0.0,7.5,172.0,8.7,'11111222,11111222,11111222' 
TCOON,ioos:station:TCOON:057:1,2008-12-02T22:00:00Z,28.4460,-96.3961,0.0,7.4,171.0,8.6,'11111222,11111222,11111222' 
TCOON,ioos:station:TCOON:057:1,2008-12-02T23:00:00Z,28.4460,-96.3961,0.0,7.4,173.0,8.4,'11111222,11111222,11111222' 
TCOON,ioos:station:TCOON:057:1,2008-12-03T00:00:00Z,28.4460,-96.3961,0.0,6.9,176.0,8.1,'11111222,11111222,11111222' 
TCOON,ioos:station:TCOON:057:1,2008-12-03T01:00:00Z,28.4460,-96.3961,0.0,6.1,185.0,7.1,'11111222,11111222,11111222' 
TCOON,ioos:station:TCOON:057:1,2008-12-03T02:00:00Z,28.4460,-96.3961,0.0,6.9,187.0,8.2,'11111222,11111222,11111222' 
TCOON,ioos:station:TCOON:057:1,2008-12-03T03:00:00Z,28.4460,-96.3961,0.0,7.5,181.0,8.3,'11111222,11111222,11111222' 
TCOON,ioos:station:TCOON:057:1,2008-12-03T04:00:00Z,28.4460,-96.3961,0.0,8.8,181.0,10.1,'11111222,11111222,11111222' 
TCOON,ioos:station:TCOON:057:1,2008-12-03T05:00:00Z,28.4460,-96.3961,0.0,8.9,181.0,10.0,'11111222,11111222,11111222' 
TCOON,ioos:station:TCOON:057:1,2008-12-03T06:00:00Z,28.4460,-96.3961,0.0,8.8,181.0,10.2,'11111222,11111222,11111222' 
TCOON,ioos:station:TCOON:057:1,2008-12-03T07:00:00Z,28.4460,-96.3961,0.0,7.5,184.0,8.6,'11111222,11111222,11111222' 
TCOON,ioos:station:TCOON:057:1,2008-12-03T08:00:00Z,28.4460,-96.3961,0.0,9.0,179.0,10.0,'11111222,11111222,11111222' 
TCOON,ioos:station:TCOON:057:1,2008-12-03T09:00:00Z,28.4460,-96.3961,0.0,8.2,177.0,9.1,'11111222,11111222,11111222' 
TCOON,ioos:station:TCOON:057:1,2008-12-03T10:00:00Z,28.4460,-96.3961,0.0,8.9,174.0,10.6,'11111222,11111222,11111222' 
TCOON,ioos:station:TCOON:057:1,2008-12-03T11:00:00Z,28.4460,-96.3961,0.0,8.6,175.0,10.5,'11111222,11111222,11111222' 
TCOON,ioos:station:TCOON:057:1,2008-12-03T12:00:00Z,28.4460,-96.3961,0.0,9.0,179.0,10.8,'11111222,11111222,11111222' 
TCOON,ioos:station:TCOON:057:1,2008-12-03T13:00:00Z,28.4460,-96.3961,0.0,7.1,182.0,8.0,'11111222,11111222,11111222' 
TCOON,ioos:station:TCOON:057:1,2008-12-03T14:00:00Z,28.4460,-96.3961,0.0,7.7,176.0,8.5,'11111222,11111222,11111222' 
TCOON,ioos:station:TCOON:057:1,2008-12-03T15:00:00Z,28.4460,-96.3961,0.0,7.2,179.0,8.5,'11111222,11111222,11111222' 
TCOON,ioos:station:TCOON:057:1,2008-12-03T16:00:00Z,28.4460,-96.3961,0.0,7.9,179.0,9.0,'11111222,11111222,11111222' 
TCOON,ioos:station:TCOON:057:1,2008-12-03T17:00:00Z,28.4460,-96.3961,0.0,8.2,180.0,9.4,'11111222,11111222,11111222' 
TCOON,ioos:station:TCOON:057:1,2008-12-03T18:00:00Z,28.4460,-96.3961,0.0,10.5,188.0,12.5,'11111222,11111222,11111222' 
TCOON,ioos:station:TCOON:057:1,2008-12-03T19:00:00Z,28.4460,-96.3961,0.0,8.1,178.0,9.9,'11111222,11111222,11111222' 
TCOON,ioos:station:TCOON:057:1,2008-12-03T20:00:00Z,28.4460,-96.3961,0.0,9.1,186.0,11.5,'11111222,11111222,11111222' 
TCOON,ioos:station:TCOON:057:1,2008-12-03T21:00:00Z,28.4460,-96.3961,0.0,8.5,183.0,10.4,'11111222,11111222,11111222' 
TCOON,ioos:station:TCOON:057:1,2008-12-03T22:00:00Z,28.4460,-96.3961,0.0,8.9,192.0,11.2,'11111222,11111222,11111222' 
TCOON,ioos:station:TCOON:057:1,2008-12-03T23:00:00Z,28.4460,-96.3961,0.0,7.5,196.0,9.0,'11111222,11111222,11111222' 
TCOON,ioos:station:TCOON:057:1,2008-12-04T00:00:00Z,28.4460,-96.3961,0.0,6.3,179.0,7.4,'11111222,11111222,11111222' 
TCOON,ioos:station:TCOON:057:1,2008-12-04T01:00:00Z,28.4460,-96.3961,0.0,7.5,190.0,8.8,'11111222,11111222,11111222' 
TCOON,ioos:station:TCOON:057:1,2008-12-04T02:00:00Z,28.4460,-96.3961,0.0,7.9,193.0,9.4,'11111222,11111222,11111222' 
TCOON,ioos:station:TCOON:057:1,2008-12-04T03:00:00Z,28.4460,-96.3961,0.0,5.8,196.0,7.1,'11111222,11111222,11111222' 
TCOON,ioos:station:TCOON:057:1,2008-12-04T04:00:00Z,28.4460,-96.3961,0.0,4.5,205.0,5.7,'11111222,11111222,11111222' 
TCOON,ioos:station:TCOON:057:1,2008-12-04T05:00:00Z,28.4460,-96.3961,0.0,11.1,352.0,12.5,'11111222,11111222,11111222' 
TCOON,ioos:station:TCOON:057:1,2008-12-04T06:00:00Z,28.4460,-96.3961,0.0,11.6,354.0,13.7,'11111222,11111222,11111222' 
TCOON,ioos:station:TCOON:057:1,2008-12-04T07:00:00Z,28.4460,-96.3961,0.0,12.9,357.0,15.6,'11111222,11111222,11111222' 
TCOON,ioos:station:TCOON:057:1,2008-12-04T08:00:00Z,28.4460,-96.3961,0.0,12.5,348.0,13.9,'11111222,11111222,11111222' 
TCOON,ioos:station:TCOON:057:1,2008-12-04T09:00:00Z,28.4460,-96.3961,0.0,12.6,353.0,14.4,'11111222,11111222,11111222' 
TCOON,ioos:station:TCOON:057:1,2008-12-04T10:00:00Z,28.4460,-96.3961,0.0,13.4,347.0,15.7,'11111222,11111222,11111222' 
TCOON,ioos:station:TCOON:057:1,2008-12-04T11:00:00Z,28.4460,-96.3961,0.0,14.2,356.0,16.8,'11111222,11111222,11111222' 
TCOON,ioos:station:TCOON:057:1,2008-12-04T12:00:00Z,28.4460,-96.3961,0.0,12.8,348.0,14.9,'11111222,11111222,11111222' 
TCOON,ioos:station:TCOON:057:1,2008-12-04T13:00:00Z,28.4460,-96.3961,0.0,13.5,352.0,16.4,'11111222,11111222,11111222' 
TCOON,ioos:station:TCOON:057:1,2008-12-04T14:00:00Z,28.4460,-96.3961,0.0,11.1,360.0,13.6,'11111222,11144222,11111222' 
TCOON,ioos:station:TCOON:057:1,2008-12-04T15:00:00Z,28.4460,-96.3961,0.0,12.0,1.0,14.2,'11111222,11111222,11111222' 
TCOON,ioos:station:TCOON:057:1,2008-12-04T16:00:00Z,28.4460,-96.3961,0.0,10.9,1.0,12.6,'11111222,11111222,11111222' 
TCOON,ioos:station:TCOON:057:1,2008-12-04T17:00:00Z,28.4460,-96.3961,0.0,10.3,356.0,12.4,'11111222,11111222,11111222' 
TCOON,ioos:station:TCOON:057:1,2008-12-04T18:00:00Z,28.4460,-96.3961,0.0,9.4,2.0,10.8,'11111222,11111222,11111222' 
TCOON,ioos:station:TCOON:057:1,2008-12-04T19:00:00Z,28.4460,-96.3961,0.0,8.4,359.0,10.1,'11111222,11111222,11111222' 
TCOON,ioos:station:TCOON:057:1,2008-12-04T20:00:00Z,28.4460,-96.3961,0.0,8.2,357.0,9.9,'11111222,11111222,11111222' 
TCOON,ioos:station:TCOON:057:1,2008-12-04T21:00:00Z,28.4460,-96.3961,0.0,7.4,356.0,9.2,'11111222,11111222,11111222' 
TCOON,ioos:station:TCOON:057:1,2008-12-04T22:00:00Z,28.4460,-96.3961,0.0,8.8,360.0,10.0,'11111222,11144222,11111222' 
TCOON,ioos:station:TCOON:057:1,2008-12-04T23:00:00Z,28.4460,-96.3961,0.0,8.4,2.0,9.5,'11111222,11111222,11111222' 
TCOON,ioos:station:TCOON:057:1,2008-12-05T00:00:00Z,28.4460,-96.3961,0.0,9.5,24.0,10.5,'11111222,11111222,11111222' 
TCOON,ioos:station:TCOON:057:1,2008-12-05T01:00:00Z,28.4460,-96.3961,0.0,9.3,26.0,10.4,'11111222,11111222,11111222' 
TCOON,ioos:station:TCOON:057:1,2008-12-05T02:00:00Z,28.4460,-96.3961,0.0,9.0,40.0,10.3,'11111222,11111222,11111222' 
TCOON,ioos:station:TCOON:057:1,2008-12-05T03:00:00Z,28.4460,-96.3961,0.0,7.4,40.0,8.5,'11111222,11111222,11111222' 
TCOON,ioos:station:TCOON:057:1,2008-12-05T04:00:00Z,28.4460,-96.3961,0.0,6.4,41.0,7.2,'11111222,11111222,11111222' 
TCOON,ioos:station:TCOON:057:1,2008-12-05T05:00:00Z,28.4460,-96.3961,0.0,8.4,39.0,11.2,'11111222,11111222,11111222' 
TCOON,ioos:station:TCOON:057:1,2008-12-05T06:00:00Z,28.4460,-96.3961,0.0,10.0,40.0,12.0,'11111222,11111222,11111222' 
TCOON,ioos:station:TCOON:057:1,2008-12-05T07:00:00Z,28.4460,-96.3961,0.0,10.5,40.0,12.3,'11111222,11111222,11111222' 
TCOON,ioos:station:TCOON:057:1,2008-12-05T08:00:00Z,28.4460,-96.3961,0.0,9.9,36.0,11.4,'11111222,11111222,11111222' 
TCOON,ioos:station:TCOON:057:1,2008-12-05T09:00:00Z,28.4460,-96.3961,0.0,10.9,34.0,12.4,'11111222,11111222,11111222' 
TCOON,ioos:station:TCOON:057:1,2008-12-05T10:00:00Z,28.4460,-96.3961,0.0,10.4,23.0,12.1,'11111222,11111222,11111222' 
TCOON,ioos:station:TCOON:057:1,2008-12-05T11:00:00Z,28.4460,-96.3961,0.0,11.4,18.0,13.4,'11111222,11111222,11111222' 
TCOON,ioos:station:TCOON:057:1,2008-12-05T12:00:00Z,28.4460,-96.3961,0.0,10.6,18.0,12.5,'11111222,11111222,11111222' 
TCOON,ioos:station:TCOON:057:1,2008-12-05T13:00:00Z,28.4460,-96.3961,0.0,9.4,9.0,11.2,'11111222,11111222,11111222' 
TCOON,ioos:station:TCOON:057:1,2008-12-05T14:00:00Z,28.4460,-96.3961,0.0,7.8,1.0,9.1,'11111222,11111222,11111222' 
TCOON,ioos:station:TCOON:057:1,2008-12-05T15:00:00Z,28.4460,-96.3961,0.0,9.2,22.0,10.8,'11111222,11111222,11111222' 
TCOON,ioos:station:TCOON:057:1,2008-12-05T16:00:00Z,28.4460,-96.3961,0.0,8.2,7.0,9.1,'11111222,11111222,11111222' 
TCOON,ioos:station:TCOON:057:1,2008-12-05T17:00:00Z,28.4460,-96.3961,0.0,6.6,10.0,7.6,'11111222,11111222,11111222' 
TCOON,ioos:station:TCOON:057:1,2008-12-05T18:00:00Z,28.4460,-96.3961,0.0,5.5,16.0,6.3,'11111222,11111222,11111222' 
TCOON,ioos:station:TCOON:057:1,2008-12-05T19:00:00Z,28.4460,-96.3961,0.0,6.3,18.0,7.1,'11111222,11111222,11111222' 
TCOON,ioos:station:TCOON:057:1,2008-12-05T20:00:00Z,28.4460,-96.3961,0.0,5.3,5.0,6.1,'11111222,11111222,11111222' 
TCOON,ioos:station:TCOON:057:1,2008-12-05T21:00:00Z,28.4460,-96.3961,0.0,5.6,340.0,6.4,'11111222,11111222,11111222' 
TCOON,ioos:station:TCOON:057:1,2008-12-05T22:00:00Z,28.4460,-96.3961,0.0,4.4,1.0,5.9,'11111222,11111222,11111222' 
TCOON,ioos:station:TCOON:057:1,2008-12-05T23:00:00Z,28.4460,-96.3961,0.0,3.3,340.0,4.0,'11111222,11111222,11111222' 
TCOON,ioos:station:TCOON:057:1,2008-12-06T00:00:00Z,28.4460,-96.3961,0.0,4.3,2.0,5.2,'11111222,11111222,11111222' 
TCOON,ioos:station:TCOON:057:1,2008-12-06T01:00:00Z,28.4460,-96.3961,0.0,4.7,360.0,5.4,'11111222,11144222,11111222' 
TCOON,ioos:station:TCOON:057:1,2008-12-06T02:00:00Z,28.4460,-96.3961,0.0,5.4,359.0,6.4,'11111222,11111222,11111222' 
TCOON,ioos:station:TCOON:057:1,2008-12-06T03:00:00Z,28.4460,-96.3961,0.0,4.4,358.0,5.5,'11111222,11111222,11111222' 
TCOON,ioos:station:TCOON:057:1,2008-12-06T04:00:00Z,28.4460,-96.3961,0.0,2.4,346.0,3.1,'11111222,11111222,11111222' 
TCOON,ioos:station:TCOON:057:1,2008-12-06T05:00:00Z,28.4460,-96.3961,0.0,2.5,3.0,3.5,'11111222,11111222,11111222' 
TCOON,ioos:station:TCOON:057:1,2008-12-06T06:00:00Z,28.4460,-96.3961,0.0,2.4,282.0,2.8,'11111222,11111222,11111222' 
TCOON,ioos:station:TCOON:057:1,2008-12-06T07:00:00Z,28.4460,-96.3961,0.0,2.6,283.0,3.0,'11111222,11111222,11111222' 
TCOON,ioos:station:TCOON:057:1,2008-12-06T08:00:00Z,28.4460,-96.3961,0.0,2.9,300.0,3.3,'11111222,11111222,11111222' 
TCOON,ioos:station:TCOON:057:1,2008-12-06T09:00:00Z,28.4460,-96.3961,0.0,3.0,349.0,3.9,'11111222,11111222,11111222' 
TCOON,ioos:station:TCOON:057:1,2008-12-06T10:00:00Z,28.4460,-96.3961,0.0,2.5,7.0,2.9,'11111222,11111222,11111222' 
TCOON,ioos:station:TCOON:057:1,2008-12-06T11:00:00Z,28.4460,-96.3961,0.0,1.9,344.0,2.4,'11111222,11111222,11111222' 
TCOON,ioos:station:TCOON:057:1,2008-12-06T12:00:00Z,28.4460,-96.3961,0.0,2.6,345.0,3.2,'11111222,11111222,11111222' 
TCOON,ioos:station:TCOON:057:1,2008-12-06T13:00:00Z,28.4460,-96.3961,0.0,4.0,7.0,4.5,'11111222,11111222,11111222' 
TCOON,ioos:station:TCOON:057:1,2008-12-06T14:00:00Z,28.4460,-96.3961,0.0,2.4,360.0,2.9,'11111222,11144222,11111222' 
TCOON,ioos:station:TCOON:057:1,2008-12-06T15:00:00Z,28.4460,-96.3961,0.0,3.1,2.0,3.8,'11111222,11111222,11111222' 
TCOON,ioos:station:TCOON:057:1,2008-12-06T16:00:00Z,28.4460,-96.3961,0.0,3.2,10.0,4.0,'11111222,11111222,11111222' 
TCOON,ioos:station:TCOON:057:1,2008-12-06T17:00:00Z,28.4460,-96.3961,0.0,2.7,360.0,3.5,'11111222,11144222,11111222' 
TCOON,ioos:station:TCOON:057:1,2008-12-06T18:00:00Z,28.4460,-96.3961,0.0,3.1,14.0,3.7,'11111222,11111222,11111222' 
TCOON,ioos:station:TCOON:057:1,2008-12-06T19:00:00Z,28.4460,-96.3961,0.0,1.1,55.0,1.5,'11111222,11111222,11111222' 
TCOON,ioos:station:TCOON:057:1,2008-12-06T20:00:00Z,28.4460,-96.3961,0.0,0.8,60.0,1.0,'11111222,11111222,11111222' 
TCOON,ioos:station:TCOON:057:1,2008-12-06T21:00:00Z,28.4460,-96.3961,0.0,1.3,81.0,1.7,'11111222,11111222,11111222' 
TCOON,ioos:station:TCOON:057:1,2008-12-06T22:00:00Z,28.4460,-96.3961,0.0,3.0,71.0,3.3,'11111222,11111222,11111222' 
TCOON,ioos:station:TCOON:057:1,2008-12-06T23:00:00Z,28.4460,-96.3961,0.0,2.9,93.0,3.3,'11111222,11111222,11111222' 
TCOON,ioos:station:TCOON:057:1,2008-12-07T00:00:00Z,28.4460,-96.3961,0.0,2.3,140.0,2.8,'11111222,11111222,11111222' 
TCOON,ioos:station:TCOON:057:1,2008-12-07T01:00:00Z,28.4460,-96.3961,0.0,2.8,138.0,3.1,'11111222,11111222,11111222' 
TCOON,ioos:station:TCOON:057:1,2008-12-07T02:00:00Z,28.4460,-96.3961,0.0,2.6,111.0,3.0,'11111222,11111222,11111222' 
TCOON,ioos:station:TCOON:057:1,2008-12-07T03:00:00Z,28.4460,-96.3961,0.0,2.1,88.0,2.4,'11111222,11111222,11111222' 
TCOON,ioos:station:TCOON:057:1,2008-12-07T04:00:00Z,28.4460,-96.3961,0.0,2.6,65.0,2.9,'11111222,11111222,11111222' 
TCOON,ioos:station:TCOON:057:1,2008-12-07T05:00:00Z,28.4460,-96.3961,0.0,2.5,63.0,2.7,'11111222,11111222,11111222' 
TCOON,ioos:station:TCOON:057:1,2008-12-07T06:00:00Z,28.4460,-96.3961,0.0,3.1,55.0,3.6,'11111222,11111222,11111222' 
TCOON,ioos:station:TCOON:057:1,2008-12-07T07:00:00Z,28.4460,-96.3961,0.0,4.0,46.0,4.3,'11111222,11111222,11111222' 
TCOON,ioos:station:TCOON:057:1,2008-12-07T08:00:00Z,28.4460,-96.3961,0.0,3.5,47.0,4.0,'11111222,11111222,11111222' 
TCOON,ioos:station:TCOON:057:1,2008-12-07T09:00:00Z,28.4460,-96.3961,0.0,4.6,39.0,4.8,'11111222,11111222,11111222' 
TCOON,ioos:station:TCOON:057:1,2008-12-07T10:00:00Z,28.4460,-96.3961,0.0,5.2,51.0,5.7,'11111222,11111222,11111222' 
TCOON,ioos:station:TCOON:057:1,2008-12-07T11:00:00Z,28.4460,-96.3961,0.0,6.0,54.0,6.7,'11111222,11111222,11111222' 
TCOON,ioos:station:TCOON:057:1,2008-12-07T12:00:00Z,28.4460,-96.3961,0.0,5.6,51.0,6.2,'11111222,11111222,11111222' 
TCOON,ioos:station:TCOON:057:1,2008-12-07T13:00:00Z,28.4460,-96.3961,0.0,4.9,52.0,5.5,'11111222,11111222,11111222' 
TCOON,ioos:station:TCOON:057:1,2008-12-07T14:00:00Z,28.4460,-96.3961,0.0,4.4,54.0,4.8,'11111222,11111222,11111222' 
TCOON,ioos:station:TCOON:057:1,2008-12-07T15:00:00Z,28.4460,-96.3961,0.0,5.3,54.0,6.1,'11111222,11111222,11111222' 
TCOON,ioos:station:TCOON:057:1,2008-12-07T16:00:00Z,28.4460,-96.3961,0.0,4.7,48.0,5.4,'11111222,11111222,11111222' 
TCOON,ioos:station:TCOON:057:1,2008-12-07T17:00:00Z,28.4460,-96.3961,0.0,6.7,100.0,7.8,'11111222,11111222,11111222' 
TCOON,ioos:station:TCOON:057:1,2008-12-07T18:00:00Z,28.4460,-96.3961,0.0,5.7,105.0,7.2,'11111222,11111222,11111222' 
TCOON,ioos:station:TCOON:057:1,2008-12-07T19:00:00Z,28.4460,-96.3961,0.0,4.9,120.0,5.6,'11111222,11111222,11111222' 
TCOON,ioos:station:TCOON:057:1,2008-12-07T20:00:00Z,28.4460,-96.3961,0.0,5.9,105.0,6.8,'11111222,11111222,11111222' 
TCOON,ioos:station:TCOON:057:1,2008-12-07T21:00:00Z,28.4460,-96.3961,0.0,5.1,112.0,6.0,'11111222,11111222,11111222' 
TCOON,ioos:station:TCOON:057:1,2008-12-07T22:00:00Z,28.4460,-96.3961,0.0,5.4,109.0,6.7,'11111222,11111222,11111222' 
TCOON,ioos:station:TCOON:057:1,2008-12-07T23:00:00Z,28.4460,-96.3961,0.0,5.7,106.0,6.5,'11111222,11111222,11111222' 
TCOON,ioos:station:TCOON:057:1,2008-12-08T00:00:00Z,28.4460,-96.3961,0.0,6.2,116.0,7.0,'11111222,11111222,11111222' 
TCOON,ioos:station:TCOON:057:1,2008-12-08T01:00:00Z,28.4460,-96.3961,0.0,6.9,118.0,8.0,'11111222,11111222,11111222' 
TCOON,ioos:station:TCOON:057:1,2008-12-08T02:00:00Z,28.4460,-96.3961,0.0,5.7,125.0,6.5,'11111222,11111222,11111222' 
TCOON,ioos:station:TCOON:057:1,2008-12-08T03:00:00Z,28.4460,-96.3961,0.0,5.6,128.0,6.3,'11111222,11111222,11111222' 
TCOON,ioos:station:TCOON:057:1,2008-12-08T04:00:00Z,28.4460,-96.3961,0.0,5.6,132.0,6.3,'11111222,11111222,11111222' 
TCOON,ioos:station:TCOON:057:1,2008-12-08T05:00:00Z,28.4460,-96.3961,0.0,5.6,137.0,6.2,'11111222,11111222,11111222' 
TCOON,ioos:station:TCOON:057:1,2008-12-08T06:00:00Z,28.4460,-96.3961,0.0,5.6,136.0,6.3,'11111222,11111222,11111222' 
TCOON,ioos:station:TCOON:057:1,2008-12-08T07:00:00Z,28.4460,-96.3961,0.0,5.4,143.0,6.2,'11111222,11111222,11111222' 
TCOON,ioos:station:TCOON:057:1,2008-12-08T08:00:00Z,28.4460,-96.3961,0.0,5.4,158.0,5.9,'11111222,11111222,11111222' 
TCOON,ioos:station:TCOON:057:1,2008-12-08T09:00:00Z,28.4460,-96.3961,0.0,3.5,161.0,3.7,'11111222,11111222,11111222' 
TCOON,ioos:station:TCOON:057:1,2008-12-08T10:00:00Z,28.4460,-96.3961,0.0,4.2,159.0,4.6,'11111222,11111222,11111222' 
TCOON,ioos:station:TCOON:057:1,2008-12-08T11:00:00Z,28.4460,-96.3961,0.0,4.9,146.0,5.7,'11111222,11111222,11111222' 
TCOON,ioos:station:TCOON:057:1,2008-12-08T12:00:00Z,28.4460,-96.3961,0.0,6.1,141.0,7.1,'11111222,11111222,11111222' 
TCOON,ioos:station:TCOON:057:1,2008-12-08T13:00:00Z,28.4460,-96.3961,0.0,5.3,153.0,5.7,'11111222,11111222,11111222' 
TCOON,ioos:station:TCOON:057:1,2008-12-08T14:00:00Z,28.4460,-96.3961,0.0,5.2,147.0,5.9,'11111222,11111222,11111222' 
TCOON,ioos:station:TCOON:057:1,2008-12-08T15:00:00Z,28.4460,-96.3961,0.0,6.8,149.0,7.5,'11111222,11111222,11111222' 
TCOON,ioos:station:TCOON:057:1,2008-12-08T16:00:00Z,28.4460,-96.3961,0.0,7.2,145.0,8.4,'11111222,11111222,11111222' 
TCOON,ioos:station:TCOON:057:1,2008-12-08T17:00:00Z,28.4460,-96.3961,0.0,6.6,152.0,7.6,'11111222,11111222,11111222' 
TCOON,ioos:station:TCOON:057:1,2008-12-08T18:00:00Z,28.4460,-96.3961,0.0,5.9,153.0,7.0,'11111222,11111222,11111222' 
TCOON,ioos:station:TCOON:057:1,2008-12-08T19:00:00Z,28.4460,-96.3961,0.0,5.5,145.0,5.9,'11111222,11111222,11111222' 
TCOON,ioos:station:TCOON:057:1,2008-12-08T20:00:00Z,28.4460,-96.3961,0.0,6.2,146.0,7.1,'11111222,11111222,11111222' 
TCOON,ioos:station:TCOON:057:1,2008-12-08T21:00:00Z,28.4460,-96.3961,0.0,5.9,145.0,6.6,'11111222,11111222,11111222' 
TCOON,ioos:station:TCOON:057:1,2008-12-08T22:00:00Z,28.4460,-96.3961,0.0,6.0,134.0,6.9,'11111222,11111222,11111222' 
TCOON,ioos:station:TCOON:057:1,2008-12-08T23:00:00Z,28.4460,-96.3961,0.0,5.7,140.0,6.2,'11111222,11111222,11111222' 
TCOON,ioos:station:TCOON:057:1,2008-12-09T00:00:00Z,28.4460,-96.3961,0.0,7.2,138.0,8.1,'11111222,11111222,11111222' 
TCOON,ioos:station:TCOON:057:1,2008-12-09T01:00:00Z,28.4460,-96.3961,0.0,6.9,144.0,7.4,'11111222,11111222,11111222' 
TCOON,ioos:station:TCOON:057:1,2008-12-09T02:00:00Z,28.4460,-96.3961,0.0,8.7,147.0,9.8,'11111222,11111222,11111222' 
TCOON,ioos:station:TCOON:057:1,2008-12-09T03:00:00Z,28.4460,-96.3961,0.0,6.3,162.0,7.2,'11111222,11111222,11111222' 
TCOON,ioos:station:TCOON:057:1,2008-12-09T04:00:00Z,28.4460,-96.3961,0.0,7.9,159.0,8.8,'11111222,11111222,11111222' 
TCOON,ioos:station:TCOON:057:1,2008-12-09T05:00:00Z,28.4460,-96.3961,0.0,8.6,169.0,9.6,'11111222,11111222,11111222' 
TCOON,ioos:station:TCOON:057:1,2008-12-09T06:00:00Z,28.4460,-96.3961,0.0,6.4,184.0,7.1,'11111222,11111222,11111222' 
TCOON,ioos:station:TCOON:057:1,2008-12-09T07:00:00Z,28.4460,-96.3961,0.0,6.8,175.0,7.4,'11111222,11111222,11111222' 
TCOON,ioos:station:TCOON:057:1,2008-12-09T08:00:00Z,28.4460,-96.3961,0.0,5.2,172.0,5.6,'11111222,11111222,11111222' 
TCOON,ioos:station:TCOON:057:1,2008-12-09T09:00:00Z,28.4460,-96.3961,0.0,8.3,163.0,9.4,'11111222,11111222,11111222' 
TCOON,ioos:station:TCOON:057:1,2008-12-09T10:00:00Z,28.4460,-96.3961,0.0,7.4,174.0,8.3,'11111222,11111222,11111222' 
TCOON,ioos:station:TCOON:057:1,2008-12-09T11:00:00Z,28.4460,-96.3961,0.0,6.7,167.0,7.5,'11111222,11111222,11111222' 
TCOON,ioos:station:TCOON:057:1,2008-12-09T12:00:00Z,28.4460,-96.3961,0.0,6.8,172.0,7.6,'11111222,11111222,11111222' 